Location: Niedergestelen
(46.3129°N, 7.7822°E)
Time: 14:28:43
(UTC+00:00)

YAOGAN 1 - Pass Details

Date: 01 December 2020
Orbit: 618 x 620 km, 97.9° (Epoch: 26 January)

Event Time Altitude Azimuth Distance (km) Brightness Sun altitude
Rises 18:38:31 0° 184° (S) 2,882 6.1 -29.4°
Enters shadow 18:38:43 - 184° (S) 2,800 6.0 -29.4°
Exits shadow 18:46:14 31° 304° (NW) 1,098 4.2 -30.7°
Drops below altitude 10° 18:48:58 10° 332° (NNW) 1,998 5.4 -31.2°
Sets 18:51:17 0° 340° (NNW) 2,910 6.2 -31.6°
